History for Miami, FL

Monday, March 4, 2013 — View Current Conditions

Jump to Data:

Date:
Airport Code:
Recently Viewed Airport Codes: KMIA
Daily Summary
  Actual Average Record
Temperature
Mean Temperature 58°F 72°F  
Max Temperature 70°F 79°F 90°F (2003)
Min Temperature 45°F 64°F 39°F (1927)
Degree Days
Heating Degree Days 7 1  
Month to date heating degree days 18 4  
Since 1 July heating degree days 54 120  
Cooling Degree Days 0 7  
Month to date cooling degree days 0 28  
Year to date cooling degree days 479 350  
Growing Degree Days 8 (Base 50)    
Moisture
Dew Point 37°F    
Average Humidity 48    
Maximum Humidity 71    
Minimum Humidity 24    
Precipitation
Precipitation 0.00 in 0.09 in 1.60 in (1965)
Month to date precipitation T 0.33  
Year to date precipitation 2.39 4.20  
Snow
Snow 0.00 in in in ()
Month to date snowfall 0.0  
Since 1 July snowfall 0.0  
Snow Depth 0.00 in    
Sea Level Pressure
Sea Level Pressure 30.18 in    
Wind
Wind Speed 5 mph (North)    
Max Wind Speed 13 mph    
Max Gust Speed 20 mph    
Visibility 10 miles    
Events      
T = Trace of Precipitation, MM = Missing Value Source: NWS Daily Summary

Show full METARS

(help) - Comma Delimited File

Hourly Observations

Time(EST) Temperature Dew Point Humidity Sea Level Pressure Visibility Wind Direction Wind Speed Gust Speed Precipitation Events Conditions
12:53 AM 51.1°F 39.9°F 66% 30.16 in 10.0 miles NW 8.1 mph 19.6 mph N/A   Clear
1:53 AM 48.9°F 37.9°F 66% 30.16 in 10.0 miles NW 8.1 mph - N/A   Clear
2:53 AM 48.0°F 39.0°F 71% 30.14 in 10.0 miles NNW 4.6 mph - N/A   Clear
3:53 AM 46.9°F 37.9°F 71% 30.14 in 10.0 miles NNW 8.1 mph 16.1 mph N/A   Clear
4:53 AM 46.9°F 37.9°F 71% 30.17 in 10.0 miles NNW 5.8 mph - N/A   Clear
5:53 AM 46.0°F 37.0°F 71% 30.19 in 10.0 miles Variable 3.5 mph - N/A   Clear
6:53 AM 46.0°F 37.0°F 71% 30.20 in 10.0 miles Variable 3.5 mph - N/A   Clear
7:53 AM 48.0°F 37.0°F 66% 30.22 in 10.0 miles North 9.2 mph - N/A   Clear
8:53 AM 52.0°F 36.0°F 54% 30.23 in 10.0 miles North 8.1 mph - N/A   Clear
9:53 AM 55.0°F 36.0°F 49% 30.23 in 10.0 miles Variable 4.6 mph - N/A   Clear
10:53 AM 57.0°F 36.0°F 45% 30.24 in 10.0 miles Variable 3.5 mph - N/A   Clear
11:53 AM 61.0°F 34.0°F 36% 30.22 in 10.0 miles NNW 8.1 mph - N/A   Clear
12:53 PM 63.0°F 32.0°F 31% 30.18 in 10.0 miles Variable 4.6 mph - N/A   Clear
1:53 PM 64.9°F 30.9°F 28% 30.17 in 10.0 miles East 6.9 mph - N/A   Clear
2:53 PM 66.9°F 32.0°F 27% 30.15 in 10.0 miles NW 3.5 mph - N/A   Clear
3:53 PM 69.1°F 32.0°F 25% 30.13 in 10.0 miles Variable 3.5 mph - N/A   Clear
4:53 PM 68.0°F 30.9°F 25% 30.14 in 10.0 miles Variable 3.5 mph - N/A   Clear
5:53 PM 64.9°F 37.9°F 37% 30.15 in 10.0 miles ENE 5.8 mph - N/A   Clear
6:53 PM 63.0°F 39.0°F 41% 30.16 in 10.0 miles ENE 5.8 mph - N/A   Clear
7:53 PM 61.0°F 42.1°F 50% 30.18 in 10.0 miles NE 3.5 mph - N/A   Clear
8:53 PM 61.0°F 43.0°F 52% 30.19 in 10.0 miles Calm Calm - N/A   Clear
9:53 PM 57.0°F 43.0°F 59% 30.21 in 10.0 miles Calm Calm - N/A   Clear
10:53 PM 57.9°F 43.0°F 58% 30.20 in 10.0 miles Calm Calm - N/A   Clear
11:53 PM 57.0°F 45.0°F 64% 30.19 in 10.0 miles WNW 3.5 mph - N/A   Clear